Date String (YYYY-MM-DD hh:mm:ss) UTC,Instrument flags,Ambient pressure (hPa),Sample flow (lpm),Bypass flow (lpm),Sample temperature (°C),Ambient temperature (°C),ASC tube jacket temperature (°C),LED temperature (°C),Box temperature (°C),Sample RH (%),Span deviation,Mass concentration (μg/m³),Mass concentration (μg/m³),Mass concentration (μg/m³)
DateTimeUTC,F1_M11,P_M11,Q1_M11,Q2_M11,T1_M11,T2_M11,T3_M11,T4_M11,T5_M11,U1_M11,ZSPAN_M11,X0_M11,X2_M11,X1_M11
2021-10-04 10:00:00,,0832.0,4.99,0.00,29.9,28.7,00.0,39.1,31.5,10.7,0000.0,0008.14,0003.36,0003.03
2021-10-04 10:01:00,,0832.0,5.00,0.00,29.9,28.7,00.0,39.1,31.5,10.7,0000.0,0007.98,0003.37,0003.03
2021-10-04 10:02:00,,0832.0,5.00,0.00,29.8,28.7,00.0,39.1,31.5,10.7,0000.0,0007.94,0003.36,0003.04
2021-10-04 10:03:00,,0832.0,5.01,0.00,29.9,28.7,00.0,39.1,31.5,10.7,0000.0,0008.12,0003.39,0003.05
2021-10-04 10:04:00,,0832.0,5.00,0.00,29.8,28.7,00.0,39.1,31.5,10.7,0000.0,0008.22,0003.40,0003.06
2021-10-04 10:05:00,,0832.0,4.98,0.00,29.8,28.7,00.0,39.1,31.5,10.8,0000.0,0008.34,0003.40,0003.08
2021-10-04 10:06:00,,0832.0,5.00,0.00,29.8,28.7,00.0,39.1,31.5,10.8,0000.0,0009.36,0003.42,0003.08
2021-10-04 10:07:00,,0831.9,4.99,0.00,29.9,28.8,00.0,39.1,31.5,10.8,0000.0,0009.87,0003.44,0003.10
2021-10-04 10:08:00,,0832.0,5.01,0.00,29.9,28.8,00.0,39.0,31.5,10.8,0000.0,0010.11,0003.47,0003.12
2021-10-04 10:09:00,,0832.0,5.00,0.00,29.9,28.8,00.0,39.0,31.5,10.8,0000.0,0009.32,0003.48,0003.11
2021-10-04 10:10:00,,0832.0,5.01,0.00,29.8,28.7,00.0,39.0,31.5,10.8,0000.0,0008.86,0003.47,0003.10
2021-10-04 10:11:00,,0832.0,5.00,0.00,29.8,28.7,00.0,39.0,31.5,10.8,0000.0,0008.60,0003.50,0003.08
2021-10-04 10:12:00,,0832.0,4.99,0.00,29.8,28.7,00.0,39.0,31.5,10.8,0000.0,0008.84,0003.54,0003.08
2021-10-04 10:13:00,,0832.0,4.99,0.00,29.8,28.7,00.0,39.0,31.5,10.9,0000.0,0009.04,0003.58,0003.07
2021-10-04 10:14:00,,0832.0,4.99,0.00,29.8,28.7,00.0,39.0,31.5,10.8,0000.0,0008.87,0003.54,0003.06
2021-10-04 10:15:00,,0831.9,5.01,0.00,29.8,28.6,00.0,39.0,31.4,10.9,0000.0,0008.80,0003.52,0003.04
2021-10-04 10:16:00,,0832.0,5.00,0.00,29.8,28.6,00.0,39.0,31.4,10.9,0000.0,0008.65,0003.48,0003.01
2021-10-04 10:17:00,,0832.0,4.99,0.00,29.8,28.6,00.0,39.0,31.4,10.9,0000.0,0007.77,0003.47,0003.01
2021-10-04 10:18:00,,0832.0,4.99,0.00,29.8,28.6,00.0,39.0,31.4,10.8,0000.0,0007.14,0003.46,0002.98
2021-10-04 10:19:00,,0831.9,5.01,0.00,29.8,28.6,00.0,39.0,31.4,10.9,0000.0,0007.39,0003.44,0002.95
2021-10-04 10:20:00,,0832.0,5.00,0.00,29.8,28.6,00.0,39.0,31.4,10.9,0000.0,0007.53,0003.43,0002.94
2021-10-04 10:21:00,,0832.0,5.00,0.00,29.8,28.6,00.0,39.0,31.4,10.9,0000.0,0007.95,0003.44,0002.94
2021-10-04 10:22:00,,0832.0,5.01,0.00,29.8,28.6,00.0,39.0,31.4,10.9,0000.0,0007.71,0003.40,0002.95
2021-10-04 10:23:00,,0831.9,4.99,0.00,29.8,28.6,00.0,39.0,31.4,10.9,0000.0,0007.54,0003.38,0002.96
2021-10-04 10:24:00,,0831.9,5.01,0.00,29.8,28.6,00.0,39.0,31.4,10.9,0000.0,0007.35,0003.35,0002.94
2021-10-04 10:25:00,,0832.0,4.99,0.00,29.8,28.7,00.0,39.0,31.4,10.9,0000.0,0007.34,0003.36,0002.94
2021-10-04 10:26:00,,0831.9,4.99,0.00,29.8,28.6,00.0,39.0,31.4,10.9,0000.0,0007.37,0003.39,0002.94
2021-10-04 10:27:00,,0832.0,5.00,0.00,29.8,28.6,00.0,39.0,31.4,10.9,0000.1,0007.27,0003.39,0002.95
2021-10-04 10:28:00,,0832.0,5.00,0.00,29.8,28.6,00.0,39.0,31.4,10.9,0000.4,0007.05,0003.39,0002.97
2021-10-04 10:29:00,,0832.0,5.00,0.00,29.8,28.6,00.0,39.0,31.5,10.9,0000.0,0007.75,0003.43,0002.99
2021-10-04 10:30:00,,0832.0,5.01,0.00,29.8,28.6,00.0,39.0,31.4,10.9,0002.5,0007.51,0003.41,0002.99
2021-10-04 10:31:00,,0831.9,4.99,0.00,29.8,28.7,00.0,39.0,31.4,10.9,0001.9,0007.52,0003.42,0002.99
2021-10-04 10:32:00,,0831.9,5.00,0.00,29.8,28.6,00.0,38.9,31.4,10.9,0003.6,0008.11,0003.43,0003.00
2021-10-04 10:33:00,,0832.0,5.02,0.00,29.8,28.6,00.0,38.9,31.4,10.9,0003.9,0008.09,0003.43,0003.01
2021-10-04 10:34:00,,0831.9,5.00,0.00,29.8,28.6,00.0,38.9,31.4,10.9,0003.8,0008.15,0003.43,0003.02
2021-10-04 10:35:00,,0832.0,5.01,0.00,29.7,28.6,00.0,38.9,31.4,11.0,0003.6,0008.17,0003.44,0003.03
2021-10-04 10:36:00,,0832.0,5.01,0.00,29.8,28.6,00.0,38.9,31.4,10.9,0002.2,0008.37,0003.46,0003.04
2021-10-04 10:37:00,,0832.0,5.00,0.00,29.7,28.6,00.0,38.9,31.4,11.0,0000.7,0008.60,0003.45,0003.04
2021-10-04 10:38:00,,0832.0,5.00,0.00,29.7,28.6,00.0,38.9,31.4,10.9,0000.0,0008.85,0003.51,0003.05
2021-10-04 10:39:00,,0831.9,5.01,0.00,29.7,28.6,00.0,38.9,31.4,10.9,0000.6,0008.99,0003.49,0003.04
2021-10-04 10:40:00,,0831.9,5.00,0.00,29.7,28.7,00.0,38.9,31.4,10.9,0000.0,0008.45,0003.47,0003.04
2021-10-04 10:41:00,,0831.9,4.99,0.00,29.7,28.7,00.0,38.9,31.4,11.0,0000.0,0008.15,0003.51,0003.06
2021-10-04 10:42:00,,0831.9,5.00,0.00,29.7,28.7,00.0,38.9,31.4,10.9,0000.0,0008.06,0003.51,0003.08
2021-10-04 10:43:00,,0832.0,5.01,0.00,29.7,28.7,00.0,38.9,31.4,10.9,0000.0,0006.94,0003.51,0003.09
2021-10-04 10:44:00,,0832.0,4.99,0.00,29.7,28.6,00.0,38.9,31.4,10.9,0000.0,0007.13,0003.52,0003.08
2021-10-04 10:45:00,,0832.0,4.99,0.00,29.7,28.7,00.0,38.9,31.4,10.9,0000.0,0007.66,0003.51,0003.08
2021-10-04 10:46:00,,0832.0,5.01,0.00,29.7,28.6,00.0,38.9,31.4,10.9,0000.6,0007.71,0003.53,0003.11
2021-10-04 10:47:00,,0832.0,5.00,0.00,29.7,28.6,00.0,38.9,31.4,10.9,0000.3,0007.56,0003.52,0003.11
2021-10-04 10:48:00,,0832.0,4.99,0.00,29.7,28.6,00.0,38.9,31.4,10.9,0000.1,0007.93,0003.53,0003.11
2021-10-04 10:49:00,,0832.0,5.00,0.00,29.7,28.6,00.0,38.9,31.4,10.9,-001.0,0008.08,0003.49,0003.11
2021-10-04 10:50:00,,0832.0,5.02,0.00,29.7,28.6,00.0,38.9,31.3,11.0,-001.6,0007.93,0003.51,0003.12
2021-10-04 10:51:00,,0832.0,5.00,0.00,29.7,28.6,00.0,38.9,31.3,10.9,-001.5,0007.90,0003.51,0003.12
2021-10-04 10:52:00,,0832.0,5.00,0.00,29.7,28.6,00.0,38.9,31.4,11.0,-000.9,0007.97,0003.49,0003.12
2021-10-04 10:53:00,,0832.0,5.00,0.00,29.7,28.6,00.0,38.9,31.4,11.0,-000.6,0008.03,0003.51,0003.12
2021-10-04 10:54:00,,0832.0,4.99,0.00,29.7,28.6,00.0,38.9,31.4,11.0,-000.1,0008.17,0003.52,0003.11
2021-10-04 10:55:00,,0832.0,5.01,0.00,29.7,28.6,00.0,38.9,31.3,11.0,0000.1,0008.10,0003.53,0003.12
2021-10-04 10:56:00,,0832.0,5.00,0.00,29.7,28.5,00.0,38.9,31.3,11.0,0000.4,0007.59,0003.55,0003.12
2021-10-04 10:57:00,,0832.0,4.99,0.00,29.7,28.6,00.0,38.9,31.3,11.0,-000.0,0007.63,0003.54,0003.12
2021-10-04 10:58:00,,0832.0,5.00,0.00,29.7,28.6,00.0,38.9,31.3,10.9,0000.0,0007.67,0003.53,0003.10
2021-10-04 10:59:00,,0832.1,5.00,0.00,29.7,28.6,00.0,38.9,31.3,10.9,0000.0,0007.25,0003.54,0003.10
